Dewpoint
58 58 59 58 58 57 56 56 56 56 56 56 55 55 54 54 54 54 55 55 55 55 55 55 54 54 53 53 53 53 53 53 52 51 50 52 52 61 63 63 63 60 65
58 57 58 58 57 57 56 56 55 55 55 55 54 55 54 54 54 54 54 54 54 54 54 53 53 53 53 52 52 52 52 51 51 50 48 50 58 60 61 61 60 59 62
57 56 55 58 57 56 56 55 55 55 55 53 53 53 53 53 53 53 52 52 52 52 53 52 52 52 51 51 51 51 51 50 50 49 48 37 44 57 58 58 58 58 60
56 54 54 57 56 55 55 55 54 54 54 53 53 53 53 53 53 52 52 51 51 51 52 52 51 51 50 49 49 50 50 50 49 49 32 31 38 56 56 55 55 56 58
51 52 55 56 56 55 55 54 53 53 51 52 52 52 52 53 50 51 50 50 50 51 51 51 51 49 48 47 48 48 48 48 48 44 23 29 33 50 53 53 52 53 54
49 52 55 56 55 54 53 53 52 50 50 50 50 51 52 50 50 50 49 49 49 49 49 49 48 46 46 44 45 45 46 46 46 24 23 26 34 48 50 51 51 51 51
51 52 54 56 54 54 53 52 50 49 49 49 48 50 49 48 48 48 48 47 47 47 47 47 45 44 43 42 42 43 44 44 33 24 22 23 43 48 50 50 50 50 50
52 53 53 55 53 53 51 50 48 48 47 47 47 46 45 46 46 46 47 46 45 45 44 44 43 42 41 40 41 42 42 42 31 22 25 23 47 49 50 48 49 49 48
52 53 55 54 52 51 49 48 47 47 46 44 44 42 42 42 43 43 43 44 43 43 42 42 42 41 40 38 38 40 41 42 36 21 22 30 45 48 49 48 48 47 47
51 52 53 53 50 49 46 46 46 46 44 43 42 38 34 38 35 40 39 41 41 40 40 40 40 38 37 36 31 35 39 42 26 22 23 37 44 47 47 46 47 46 47
49 50 50 49 51 49 46 43 44 43 40 42 41 35 37 35 34 33 37 36 36 37 34 35 34 35 33 31 25 31 36 25 26 23 25 46 47 50 48 45 44 46 45
49 46 46 47 49 48 38 41 40 37 38 39 39 39 35 38 35 31 33 33 32 32 33 32 28 32 29 23 21 28 23 28 25 25 35 46 47 49 50 50 48 47 48
48 45 43 47 49 44 38 36 34 34 37 38 41 40 39 36 37 32 31 29 31 30 26 27 25 23 28 26 24 26 27 28 24 25 38 43 43 46 47 47 46 47 46
48 46 43 44 48 44 37 36 37 35 36 35 37 40 38 34 36 35 32 31 30 28 29 27 24 28 27 26 26 26 27 27 26 27 32 39 39 41 44 45 44 44 44
48 47 45 45 46 44 42 38 39 39 36 37 36 39 38 35 37 34 33 31 30 29 28 27 25 25 24 24 24 24 25 27 29 26 27 37 35 34 39 42 43 43 43
48 46 46 43 45 43 42 42 40 39 39 36 37 38 39 38 38 34 33 31 30 29 29 26 26 24 22 22 21 23 24 25 27 29 26 26 33 30 31 35 39 42 43
46 43 45 44 45 44 43 41 39 37 35 35 35 39 39 39 38 38 33 31 31 31 30 28 27 24 22 21 23 22 22 24 23 27 27 26 25 35 30 29 33 38 41
42 43 41 38 43 43 43 40 37 39 43 37 34 36 39 38 38 37 31 31 32 29 27 26 25 25 25 25 25 24 24 25 26 27 27 26 26 25 28 27 28 33 37
40 42 40 42 42 42 42 40 42 42 38 35 35 35 38 36 35 34 29 29 33 27 28 27 28 28 27 26 24 24 25 24 25 22 26 28 28 26 26 29 30 31 34
41 41 41 41 43 42 39 38 36 40 35 34 34 34 35 33 33 32 28 30 29 26 27 29 31 29 28 27 23 24 26 26 26 26 26 23 24 26 26 26 27 26 29
41 40 39 40 40 37 34 33 34 40 31 33 31 33 33 33 32 31 28 28 28 27 29 31 29 29 26 28 26 24 24 26 27 26 25 23 24 24 26 25 25 24 26
40 39 38 37 36 33 31 35 41 33 33 32 32 32 30 32 31 29 31 28 30 28 30 30 30 27 26 27 24 24 21 20 24 24 23 24 26 25 24 25 26 26 28
38 37 35 34 32 33 34 34 35 35 34 28 24 23 26 29 30 31 30 30 30 29 27 29 29 28 26 26 28 26 24 20 22 24 25 25 27 25 25 26 27 27 28
36 35 33 33 34 34 34 34 33 28 25 25 24 23 25 28 29 29 31 31 31 29 29 28 26 28 26 25 26 25 26 27 26 21 23 24 26 24 27 26 26 27 28
34 34 37 35 32 32 33 32 29 29 24 24 25 27 26 26 28 27 30 31 31 29 29 29 28 27 26 28 28 27 25 24 24 30 27 21 22 23 23 26 26 26 26
33 37 36 32 30 30 31 32 30 30 28 25 26 23 23 23 24 27 29 30 30 30 29 28 28 27 28 28 28 28 29 29 28 27 26 22 22 23 25 24 25 26 26
Lifted_Index
7 8 9 11 12 12 13 13 13 13 13 13 13 13 14 13 13 13 13 13 12 12 12 12 12 13 13 13 13 13 13 13 13 14 14 12 9 6 4 3 3 3 2
8 9 10 11 12 12 13 13 13 13 13 13 13 13 14 13 13 13 13 13 13 13 12 13 13 13 13 13 13 13 13 13 13 14 14 12 9 6 5 4 4 4 3
8 9 11 12 12 12 13 13 13 13 13 13 14 13 13 13 13 13 14 14 13 13 13 13 13 13 14 13 13 13 13 14 14 14 14 12 10 7 6 6 6 5 5
9 10 11 12 12 13 13 13 13 13 14 14 14 13 13 13 14 14 14 14 14 13 13 13 14 14 14 14 14 14 14 14 14 14 14 14 12 9 8 7 7 7 6
9 10 11 12 12 13 13 13 14 14 14 14 14 14 14 14 14 14 14 14 14 14 14 14 14 15 15 15 15 15 15 15 15 15 15 15 13 11 9 9 8 8 8
10 10 11 12 12 13 13 14 14 15 15 15 15 14 14 14 14 14 15 15 15 14 14 14 15 16 16 17 17 16 16 16 15 15 15 15 13 12 10 10 9 9 9
10 10 11 12 12 13 14 14 15 16 16 15 15 15 15 15 15 15 15 15 15 15 15 16 16 17 17 18 17 17 17 16 16 16 15 14 13 11 11 10 10 10 10
10 10 11 11 12 13 14 15 16 16 16 16 16 16 16 16 16 16 16 16 16 16 16 17 17 18 18 18 18 17 17 16 16 15 15 14 13 11 11 10 10 10 10
9 10 10 11 12 14 15 16 16 16 17 17 17 17 17 17 17 17 17 17 17 17 18 18 18 18 18 18 18 17 16 16 15 15 15 14 13 12 11 10 10 10 10
9 9 9 10 11 13 15 16 17 17 17 16 16 16 16 17 17 17 18 18 18 18 18 18 18 18 18 18 18 17 16 16 15 15 15 14 13 12 11 11 11 10 10
8 8 9 10 10 12 14 16 16 16 16 16 16 16 16 16 17 18 18 18 18 18 18 18 18 18 18 18 18 17 17 16 15 15 14 13 12 11 10 11 11 10 10
7 8 9 9 10 11 13 15 15 15 15 15 15 15 15 16 17 17 17 17 17 17 17 17 17 17 17 17 17 17 17 16 16 15 14 13 12 11 10 10 10 10 10
7 8 9 10 10 11 13 14 14 14 14 14 15 15 15 15 16 16 16 16 16 16 16 16 16 17 17 17 17 17 17 16 16 15 14 14 13 13 12 11 11 11 11
6 7 9 10 10 12 13 13 14 14 14 14 15 15 15 15 15 15 14 15 15 16 16 16 16 16 17 17 17 17 17 16 16 15 15 15 15 15 14 13 12 12 12
5 7 8 9 10 11 12 13 13 14 14 14 15 15 15 15 14 14 14 14 15 15 16 16 16 17 17 17 17 17 17 16 16 15 15 16 16 16 16 15 14 14 13
6 7 8 9 10 11 12 13 13 13 14 14 15 15 14 14 14 14 14 14 15 16 16 16 17 17 17 17 17 16 16 16 16 16 16 16 16 17 17 16 16 15 15
6 7 9 10 11 11 12 12 13 13 14 14 15 14 14 14 14 14 14 14 15 16 16 16 17 17 16 16 16 16 16 16 16 16 16 16 16 16 17 17 17 16 15
7 8 9 10 11 11 12 12 13 13 13 14 14 14 14 14 14 14 14 15 16 16 16 16 16 16 16 16 15 15 15 15 15 15 15 15 15 15 16 16 16 16 16
8 9 10 10 11 11 12 12 13 13 13 14 14 14 14 14 14 15 15 16 16 16 16 16 16 16 15 15 15 14 14 14 14 14 14 14 14 14 14 14 14 14 14
9 9 10 10 11 11 12 12 13 13 13 14 14 14 14 15 15 15 16 16 16 16 16 16 15 15 15 14 14 14 13 13 13 13 13 13 12 12 12 12 12 12 12
9 10 11 11 11 11 11 11 12 13 13 14 14 14 15 15 16 16 16 16 16 16 16 15 15 14 14 14 13 13 12 12 12 12 11 11 11 11 11 11 11 11 11
10 11 11 11 11 11 10 10 11 12 13 14 14 15 15 16 16 16 16 16 16 16 15 15 14 14 13 13 13 13 12 11 11 11 10 10 11 11 11 11 11 11 11
11 12 12 12 11 10 10 10 11 12 12 14 15 15 16 16 16 16 16 16 16 15 15 14 14 13 13 13 13 13 12 12 11 10 10 10 11 11 11 11 11 11 11
12 13 13 12 11 10 11 11 11 12 12 14 15 15 15 16 16 16 16 16 15 15 14 13 13 13 13 13 13 13 13 12 11 10 10 10 11 11 11 11 11 11 10
13 13 13 12 11 11 12 12 12 13 14 14 15 15 15 16 16 16 16 15 15 14 13 13 13 13 13 13 14 13 13 13 12 11 11 11 11 11 11 11 11 10 10
14 14 13 12 11 12 12 12 13 14 15 15 15 15 15 16 16 16 16 15 14 13 13 13 13 13 13 13 14 13 13 12 12 12 11 11 11 11 11 11 11 10 10